EW8974 Weather Reports


Display with metric or nautical units.
time (UTC)temp
F
wind
direction
speed
MPH
gust
MPH
rain 1hr
in
rain 24hr
in
rain mn
in
humidity
%
barometer
mb
20260906182522 99 230 1.0 4.0 0.00 0.00 0.00 47 1006.7
20260906182021 99 162 0.0 4.0 0.00 0.00 0.00 48 1006.7
20260906181520 98 64 0.0 4.0 0.00 0.00 0.00 46 1006.7
20260906181019 98 289 0.0 5.0 0.00 0.00 0.00 48 1006.8
20260906180521 97 237 1.0 5.0 0.00 0.00 0.00 46 1006.9
20260906180018 98 156 1.0 3.0 0.00 0.00 0.00 47 1007.0
20260906175518 98 27 0.0 3.0 0.00 0.00 0.00 47 1006.9
20260906175017 97 339 0.0 3.0 0.00 0.00 0.00 48 1007.0
20260906174519 97 228 0.0 3.0 0.00 0.00 0.00 50 1007.1
20260906174016 96 269 0.0 2.0 0.00 0.00 0.00 51 1007.2
20260906173515 96 342 0.0 4.0 0.00 0.00 0.00 50 1007.3
20260906173015 97 65 1.0 4.0 0.00 0.00 0.00 48 1007.3
20260906172513 96 353 0.0 2.0 0.00 0.00 0.00 51 1007.5
20260906172013 96 332 0.0 3.0 0.00 0.00 0.00 52 1007.6
20260906171512 95 248 0.0 4.0 0.00 0.00 0.00 53 1007.6
20260906171010 95 269 0.0 4.0 0.00 0.00 0.00 53 1007.7
20260906170510 95 200 1.0 4.0 0.00 0.00 0.00 51 1007.8
20260906170009 94 225 0.0 4.0 0.00 0.00 0.00 54 1007.9
20260906165508 94 349 0.0 4.0 0.00 0.00 0.00 55 1008.0
20260906165010 94 288 1.0 4.0 0.00 0.00 0.00 52 1008.0
20260906164506 93 233 0.0 4.0 0.00 0.00 0.00 57 1008.1
20260906164005 93 286 0.0 4.0 0.00 0.00 0.00 55 1007.9
20260906163504 93 294 0.0 4.0 0.00 0.00 0.00 56 1007.9
20260906163004 92 65 0.0 7.0 0.00 0.00 0.00 55 1008.1
20260906162504 92 238 0.0 7.0 0.00 0.00 0.00 57 1008.0
20260906162003 93 82 1.0 4.0 0.00 0.00 0.00 57 1008.1
20260906161502 92 198 1.0 4.0 0.00 0.00 0.00 61 1008.1
20260906161101 92 302 0.0 2.0 0.00 0.00 0.00 59 1008.1
20260906160600 91 86 0.0 3.0 0.00 0.00 0.00 61 1008.1
20260906160059 91 64 0.0 2.0 0.00 0.00 0.00 63 1008.1
20260906155558 90 12 0.0 3.0 0.00 0.00 0.00 63 1008.1
20260906155055 90 353 1.0 3.0 0.00 0.00 0.00 64 1008.2
20260906154554 90 344 0.0 3.0 0.00 0.00 0.00 65 1008.0
20260906154054 89 207 0.0 2.0 0.00 0.00 0.00 66 1008.0
20260906153554 89 26 0.0 1.0 0.00 0.00 0.00 67 1008.2
20260906153112 88 281 0.0 1.0 0.00 0.00 0.00 69 1008.2
20260906152549 87 293 0.0 2.0 0.00 0.00 0.00 71 1008.1
20260906152047 86 101 0.0 2.0 0.00 0.00 0.00 70 1007.9
20260906151555 85 199 0.0 2.0 0.00 0.00 0.00 74 1007.8
20260906151045 85 203 0.0 3.0 0.00 0.00 0.00 74 1007.9
20260906150543 84 234 0.0 3.0 0.00 0.00 0.00 76 1008.0
20260906150044 83 39 1.0 3.0 0.00 0.00 0.00 77 1007.9
20260906145540 82 74 0.0 2.0 0.00 0.00 0.00 79 1008.0
20260906145039 82 174 0.0 3.0 0.00 0.00 0.00 80 1008.0
20260906144542 81 82 1.0 3.0 0.00 0.00 0.00 81 1007.9
20260906144036 81 179 0.0 2.0 0.00 0.00 0.00 82 1007.9
20260906143535 80 179 0.0 2.0 0.00 0.00 0.00 83 1007.9
20260906143042 80 263 0.0 1.0 0.00 0.00 0.00 84 1007.8
20260906142533 79 235 0.0 1.0 0.00 0.00 0.00 85 1007.7
20260906142035 79 235 0.0 1.0 0.00 0.00 0.00 86 1007.8
20260906141532 78 235 0.0 1.0 0.00 0.00 0.00 87 1007.8
20260906141033 78 235 0.0 1.0 0.00 0.00 0.00 87 1007.8
20260906140534 77 235 0.0 1.0 0.00 0.00 0.00 88 1007.8
20260906140035 77 235 0.0 1.0 0.00 0.00 0.00 89 1007.8
20260906135532 76 235 0.0 1.0 0.00 0.00 0.00 90 1007.8
20260906135031 76 235 0.0 1.0 0.00 0.00 0.00 91 1007.8
20260906134531 76 235 0.0 0.0 0.00 0.00 0.00 92 1007.7
20260906134031 75 235 0.0 1.0 0.00 0.00 0.00 92 1007.7
20260906133533 75 235 0.0 1.0 0.00 0.00 0.00 93 1007.7
20260906133030 74 235 0.0 1.0 0.00 0.00 0.00 93 1007.8
20260906132530 74 235 0.0 1.0 0.00 0.00 0.00 93 1007.8
20260906132029 74 235 0.0 0.0 0.00 0.00 0.00 93 1007.8
20260906131529 74 235 0.0 0.0 0.00 0.00 0.00 93 1007.7
20260906131028 73 235 0.0 0.0 0.00 0.00 0.00 93 1007.6
20260906130529 73 235 0.0 0.0 0.00 0.00 0.00 93 1007.6
20260906130031 73 235 0.0 0.0 0.00 0.00 0.00 93 1007.5
20260906125528 73 235 0.0 1.0 0.00 0.00 0.00 93 1007.5
20260906125026 72 235 0.0 1.0 0.00 0.00 0.00 93 1007.4
20260906124525 72 235 0.0 0.0 0.00 0.00 0.00 93 1007.2
20260906124026 72 235 0.0 0.0 0.00 0.00 0.00 93 1007.2
20260906123526 72 235 0.0 0.0 0.00 0.00 0.00 93 1007.2
20260906123040 72 235 0.0 0.0 0.00 0.00 0.00 93 1007.2
20260906122525 72 235 0.0 0.0 0.00 0.00 0.00 93 1007.1
20260906122026 72 235 0.0 0.0 0.00 0.00 0.00 93 1007.2
20260906121524 72 235 0.0 0.0 0.00 0.00 0.00 92 1007.2
20260906121023 72 235 0.0 0.0 0.00 0.00 0.00 92 1007.2
20260906120523 72 235 0.0 0.0 0.00 0.00 0.00 92 1007.1
20260906120023 72 235 0.0 0.0 0.00 0.00 0.00 92 1007.1
20260906115523 72 235 0.0 0.0 0.00 0.00 0.00 92 1006.9
20260906115023 72 235 0.0 0.0 0.00 0.00 0.00 92 1007.0
20260906114523 72 235 0.0 0.0 0.00 0.00 0.00 92 1007.0
20260906114022 72 235 0.0 0.0 0.00 0.00 0.00 92 1007.0
20260906113523 72 235 0.0 0.0 0.00 0.00 0.00 91 1006.9
20260906113023 72 235 0.0 0.0 0.00 0.00 0.00 91 1006.8
20260906112524 72 235 0.0 0.0 0.00 0.00 0.00 91 1006.9
20260906112019 72 235 0.0 0.0 0.00 0.00 0.00 91 1006.9
20260906111523 72 235 0.0 0.0 0.00 0.00 0.00 91 1006.8
20260906111018 72 235 0.0 0.0 0.00 0.00 0.00 91 1006.7
20260906110518 72 235 0.0 0.0 0.00 0.00 0.00 91 1006.6
20260906110018 73 235 0.0 0.0 0.00 0.00 0.00 91 1006.7
20260906105517 73 235 0.0 0.0 0.00 0.00 0.00 91 1006.5
20260906105017 73 235 0.0 0.0 0.00 0.00 0.00 91 1006.5
20260906104518 73 235 0.0 0.0 0.00 0.00 0.00 91 1006.6
20260906104016 73 235 0.0 0.0 0.00 0.00 0.00 91 1006.5
20260906103515 73 235 0.0 0.0 0.00 0.00 0.00 91 1006.6
20260906103016 73 235 0.0 0.0 0.00 0.00 0.00 91 1006.5
20260906102516 73 235 0.0 0.0 0.00 0.00 0.00 91 1006.4
20260906102015 73 235 0.0 0.0 0.00 0.00 0.00 91 1006.4
20260906101524 73 235 0.0 0.0 0.00 0.00 0.00 90 1006.3
20260906101014 73 235 0.0 0.0 0.00 0.00 0.00 90 1006.2
20260906100513 73 235 0.0 0.0 0.00 0.00 0.00 90 1006.1
20260906100012 73 235 0.0 0.0 0.00 0.00 0.00 90 1006.1
20260906095512 73 235 0.0 0.0 0.00 0.00 0.00 90 1006.0
20260906095012 73 235 0.0 0.0 0.00 0.00 0.00 90 1006.0
20260906094511 74 235 0.0 0.0 0.00 0.00 0.00 89 1006.0
20260906094010 74 235 0.0 0.0 0.00 0.00 0.00 89 1006.0
20260906093513 74 235 0.0 0.0 0.00 0.00 0.00 89 1005.9
20260906093015 74 235 0.0 0.0 0.00 0.00 0.00 89 1005.8
20260906092508 74 235 0.0 0.0 0.00 0.00 0.00 89 1005.8
20260906092013 74 235 0.0 0.0 0.00 0.00 0.00 89 1005.7
20260906091508 74 235 0.0 0.0 0.00 0.00 0.00 89 1005.8
20260906091008 74 235 0.0 0.0 0.00 0.00 0.00 89 1005.6
20260906090507 74 235 0.0 0.0 0.00 0.00 0.00 89 1005.6
20260906090024 74 235 0.0 0.0 0.00 0.00 0.00 88 1005.7
20260906085507 74 235 0.0 0.0 0.00 0.00 0.00 88 1005.7
20260906085007 74 235 0.0 0.0 0.00 0.00 0.00 88 1005.7
20260906084505 75 235 0.0 0.0 0.00 0.00 0.00 88 1005.7
20260906084003 75 235 0.0 0.0 0.00 0.00 0.00 88 1005.7
20260906083503 75 235 0.0 0.0 0.00 0.00 0.00 87 1005.6
20260906083005 75 235 0.0 0.0 0.00 0.00 0.00 87 1005.5
20260906082501 75 235 0.0 0.0 0.00 0.00 0.00 87 1005.5
20260906082004 75 235 0.0 0.0 0.00 0.00 0.00 87 1005.8
20260906081600 75 235 0.0 0.0 0.00 0.00 0.00 87 1005.9
20260906081100 76 235 0.0 0.0 0.00 0.00 0.00 87 1006.0
20260906080600 76 235 0.0 0.0 0.00 0.00 0.00 87 1005.9
20260906080122 76 235 0.0 0.0 0.00 0.00 0.00 86 1005.9
20260906075558 76 235 0.0 0.0 0.00 0.00 0.00 86 1005.9
20260906075056 76 235 0.0 0.0 0.00 0.00 0.00 85 1006.0
20260906074607 76 235 0.0 0.0 0.00 0.00 0.00 85 1005.9
20260906074055 77 235 0.0 0.0 0.00 0.00 0.00 85 1005.9
20260906073557 77 235 0.0 1.0 0.00 0.00 0.00 85 1006.0
20260906073106 77 235 0.0 1.0 0.00 0.00 0.00 85 1006.0
20260906072552 77 342 0.0 1.0 0.00 0.00 0.00 85 1006.0
20260906072051 77 343 0.0 1.0 0.00 0.00 0.00 85 1006.0
20260906071551 78 343 0.0 1.0 0.00 0.00 0.00 85 1005.9
20260906071051 78 343 0.0 2.0 0.00 0.00 0.00 85 1006.0
20260906070549 78 275 0.0 4.0 0.00 0.00 0.00 84 1006.0
20260906070049 78 244 1.0 4.0 0.00 0.00 0.00 84 1006.2
20260906065548 78 227 0.0 3.0 0.00 0.00 0.00 84 1006.2
20260906065047 78 218 1.0 4.0 0.00 0.00 0.00 84 1006.2
20260906064548 78 230 1.0 4.0 0.00 0.00 0.00 84 1006.3
20260906064046 78 239 1.0 3.0 0.00 0.00 0.00 84 1006.3
20260906063546 78 315 0.0 1.0 0.00 0.00 0.00 84 1006.4
20260906063050 78 315 0.0 1.0 0.00 0.00 0.00 84 1006.4
20260906062545 79 276 0.0 1.0 0.00 0.00 0.00 84 1006.5
20260906062045 79 276 0.0 1.0 0.00 0.00 0.00 84 1006.6
20260906061546 79 276 0.0 1.0 0.00 0.00 0.00 84 1006.6
20260906061047 79 205 0.0 1.0 0.00 0.00 0.00 84 1006.6
20260906060545 79 284 0.0 1.0 0.00 0.00 0.00 84 1006.6
20260906060043 79 284 0.0 1.0 0.00 0.00 0.00 84 1006.5
20260906055544 79 284 0.0 1.0 0.00 0.00 0.00 84 1006.4
20260906055043 79 321 0.0 0.0 0.00 0.00 0.00 83 1006.4
20260906054544 79 321 0.0 0.0 0.00 0.00 0.00 83 1006.4
20260906054043 79 321 0.0 1.0 0.00 0.00 0.00 83 1006.3
20260906053541 79 356 0.0 1.0 0.00 0.00 0.00 83 1006.3
20260906053041 79 356 0.0 1.0 0.00 0.00 0.00 83 1006.3
20260906052541 79 356 0.0 1.0 0.00 0.00 0.00 82 1006.2
20260906052039 79 356 0.0 0.0 0.00 0.00 0.00 82 1006.3
20260906051554 79 356 0.0 0.0 0.00 0.00 0.00 82 1006.3
20260906051040 79 356 0.0 0.0 0.00 0.00 0.00 82 1006.2
20260906050537 80 236 0.0 0.0 0.00 0.00 0.00 81 1006.1
20260906050041 80 236 0.0 0.0 0.00 0.00 0.00 81 1006.4
20260906045537 80 236 0.0 0.0 0.00 0.00 0.00 81 1006.3
20260906045037 80 236 0.0 0.0 0.00 0.00 0.00 80 1006.1
20260906044545 80 236 0.0 0.0 0.00 0.00 0.00 80 1006.1
20260906044040 80 236 0.0 0.0 0.00 0.00 0.00 80 1006.2
20260906043539 80 236 0.0 0.0 0.00 0.00 0.00 80 1006.1
20260906043046 80 236 0.0 0.0 0.00 0.00 0.00 79 1006.1
20260906042535 80 236 0.0 1.0 0.00 0.00 0.00 79 1006.1
20260906042035 80 236 0.0 1.0 0.00 0.00 0.00 79 1006.2
20260906041536 81 236 0.0 0.0 0.00 0.00 0.00 79 1006.2
20260906041036 81 236 0.0 0.0 0.00 0.00 0.00 78 1006.3
20260906040535 81 236 0.0 0.0 0.00 0.00 0.00 78 1006.3
20260906040038 81 236 0.0 0.0 0.00 0.00 0.00 77 1006.2
20260906035539 81 236 0.0 0.0 0.00 0.00 0.00 76 1006.1
20260906035035 81 236 0.0 1.0 0.00 0.00 0.00 76 1006.2
20260906034539 82 236 0.0 1.0 0.00 0.00 0.00 76 1006.1
20260906034034 82 236 0.0 1.0 0.00 0.00 0.00 75 1006.1
20260906033534 82 236 0.0 1.0 0.00 0.00 0.00 75 1006.1
20260906033034 82 236 0.0 1.0 0.00 0.00 0.00 74 1006.2
20260906032534 82 236 0.0 0.0 0.00 0.00 0.00 74 1006.2
20260906032033 82 236 0.0 0.0 0.00 0.00 0.00 74 1006.3
20260906031538 82 236 0.0 1.0 0.00 0.00 0.00 74 1006.2
20260906031033 82 236 0.0 1.0 0.00 0.00 0.00 73 1006.2
20260906030535 83 236 0.0 1.0 0.00 0.00 0.00 72 1006.2
20260906030033 83 236 0.0 1.0 0.00 0.00 0.00 72 1006.2
20260906025532 83 236 0.0 0.0 0.00 0.00 0.00 71 1006.3
20260906025032 83 236 0.0 1.0 0.00 0.00 0.00 71 1006.3
20260906024532 84 236 0.0 1.0 0.00 0.00 0.00 71 1006.3
20260906024032 84 236 0.0 1.0 0.00 0.00 0.00 70 1006.3
20260906023531 84 236 0.0 1.0 0.00 0.00 0.00 70 1006.1
20260906023031 84 235 0.0 1.0 0.00 0.00 0.00 70 1006.0
20260906022533 84 235 0.0 1.0 0.00 0.00 0.00 69 1005.9
20260906022031 84 235 0.0 2.0 0.00 0.00 0.00 69 1005.8
20260906021531 84 342 0.0 2.0 0.00 0.00 0.00 68 1005.8
20260906021030 84 245 0.0 1.0 0.00 0.00 0.00 68 1005.6
20260906020530 85 278 0.0 2.0 0.00 0.00 0.00 67 1005.5
20260906020031 85 282 0.0 1.0 0.00 0.00 0.00 67 1005.4
20260906015532 85 255 0.0 2.0 0.00 0.00 0.00 67 1005.5
20260906015030 85 146 0.0 4.0 0.00 0.00 0.00 66 1005.4
20260906014530 85 225 0.0 4.0 0.00 0.00 0.00 66 1005.2
20260906014031 85 212 0.0 3.0 0.00 0.00 0.00 66 1005.1
20260906013529 85 238 0.0 3.0 0.00 0.00 0.00 65 1005.1
20260906013042 86 248 0.0 3.0 0.00 0.00 0.00 65 1005.0
20260906012529 86 202 0.0 3.0 0.00 0.00 0.00 65 1005.0
20260906012028 86 203 0.0 2.0 0.00 0.00 0.00 64 1004.8
20260906011528 86 241 0.0 2.0 0.00 0.00 0.00 64 1004.9
20260906011030 87 211 0.0 1.0 0.00 0.00 0.00 63 1004.8
20260906010527 87 237 0.0 3.0 0.00 0.00 0.00 63 1004.8
20260906010030 87 190 0.0 6.0 0.00 0.00 0.00 62 1004.8
20260906005527 88 206 0.0 6.0 0.00 0.00 0.00 62 1004.9
20260906005027 88 43 0.0 3.0 0.00 0.00 0.00 61 1004.9
20260906004527 89 307 0.0 4.0 0.00 0.00 0.00 60 1004.8
20260906004027 90 203 0.0 2.0 0.00 0.00 0.00 58 1004.8
20260906003526 90 328 0.0 3.0 0.00 0.00 0.00 57 1004.8
20260906003026 91 219 0.0 3.0 0.00 0.00 0.00 56 1004.7
20260906002526 91 317 0.0 3.0 0.00 0.00 0.00 55 1004.7
20260906002026 92 311 0.0 3.0 0.00 0.00 0.00 54 1004.6
20260906001526 93 230 0.0 2.0 0.00 0.00 0.00 52 1004.5
20260906001026 94 156 0.0 4.0 0.00 0.00 0.00 51 1004.6
20260906000526 96 200 1.0 5.0 0.00 0.00 0.00 48 1004.4
20260906000025 98 13 1.0 5.0 0.00 0.00 0.00 44 1004.4
20260905235525 99 236 0.0 2.0 0.00 0.00 0.00 40 1004.3
20260905235025 100 243 0.0 3.0 0.00 0.00 0.00 40 1004.1
20260905234525 100 245 0.0 4.0 0.00 0.00 0.00 40 1004.1
20260905234025 100 244 0.0 4.0 0.00 0.00 0.00 39 1003.9
20260905233524 100 353 0.0 5.0 0.00 0.00 0.00 39 1004.0
20260905233026 99 295 0.0 3.0 0.00 0.00 0.00 40 1003.9
20260905232524 98 4 0.0 3.0 0.00 0.00 0.00 41 1004.0
20260905232024 98 267 0.0 3.0 0.00 0.00 0.00 42 1004.0
20260905231528 98 1 0.0 1.0 0.00 0.00 0.00 42 1004.0
20260905231025 98 1 0.0 1.0 0.00 0.00 0.00 40 1004.1
20260905230524 99 17 0.0 3.0 0.00 0.00 0.00 39 1004.1
20260905230025 101 164 0.0 3.0 0.00 0.00 0.00 38 1004.0
20260905225523 103 281 0.0 3.0 0.00 0.00 0.00 36 1004.0
20260905225025 104 187 1.0 3.0 0.00 0.00 0.00 36 1004.0
20260905224522 104 345 0.0 2.0 0.00 0.00 0.00 36 1004.0
20260905224020 104 274 0.0 1.0 0.00 0.00 0.00 36 1004.0
20260905223519 104 69 0.0 2.0 0.00 0.00 0.00 34 1003.9
20260905223019 103 37 0.0 3.0 0.00 0.00 0.00 36 1003.9
20260905222521 103 32 0.0 2.0 0.00 0.00 0.00 35 1003.9
20260905222022 103 347 0.0 2.0 0.00 0.00 0.00 36 1004.0
20260905221518 102 243 0.0 2.0 0.00 0.00 0.00 37 1003.9
20260905221021 102 347 0.0 2.0 0.00 0.00 0.00 37 1003.9
20260905220518 101 22 0.0 2.0 0.00 0.00 0.00 39 1003.9
20260905220017 102 288 0.0 1.0 0.00 0.00 0.00 38 1004.1
20260905215518 103 284 0.0 1.0 0.00 0.00 0.00 36 1004.1
20260905215017 103 219 0.0 2.0 0.00 0.00 0.00 36 1004.0
20260905214518 103 219 0.0 5.0 0.00 0.00 0.00 35 1004.0
20260905214017 103 231 1.0 5.0 0.00 0.00 0.00 35 1004.1
20260905213520 103 61 0.0 4.0 0.00 0.00 0.00 37 1004.2
20260905213017 103 278 0.0 4.0 0.00 0.00 0.00 35 1004.3
20260905212513 102 335 0.0 1.0 0.00 0.00 0.00 35 1004.3
20260905212013 102 272 0.0 3.0 0.00 0.00 0.00 39 1004.3
20260905211516 101 222 0.0 3.0 0.00 0.00 0.00 37 1004.5
20260905211013 101 70 0.0 2.0 0.00 0.00 0.00 37 1004.5
20260905210513 100 321 0.0 3.0 0.00 0.00 0.00 38 1004.5
20260905210013 101 330 0.0 3.0 0.00 0.00 0.00 38 1004.4
20260905205511 101 219 0.0 4.0 0.00 0.00 0.00 38 1004.5
20260905205011 102 20 0.0 4.0 0.00 0.00 0.00 37 1004.6
20260905204509 103 359 0.0 3.0 0.00 0.00 0.00 37 1004.7
20260905204009 102 255 0.0 3.0 0.00 0.00 0.00 39 1004.8
20260905203508 101 59 0.0 6.0 0.00 0.00 0.00 39 1004.8
20260905203008 101 49 2.0 6.0 0.00 0.00 0.00 37 1004.9
20260905202508 101 246 1.0 4.0 0.00 0.00 0.00 37 1005.0
20260905202008 101 194 0.0 7.0 0.00 0.00 0.00 37 1005.0
20260905201507 102 70 1.0 7.0 0.00 0.00 0.00 36 1005.0
20260905201008 102 345 0.0 3.0 0.00 0.00 0.00 38 1005.1
20260905200505 102 352 0.0 3.0 0.00 0.00 0.00 38 1005.2
20260905200005 101 27 0.0 5.0 0.00 0.00 0.00 39 1005.4
20260905195503 101 337 0.0 5.0 0.00 0.00 0.00 40 1005.5
20260905195004 102 41 0.0 3.0 0.00 0.00 0.00 38 1005.5
20260905194502 102 47 0.0 5.0 0.00 0.00 0.00 39 1005.6
20260905194101 101 146 0.0 5.0 0.00 0.00 0.00 39 1005.6
20260905193558 100 71 0.0 4.0 0.00 0.00 0.00 41 1005.7
20260905193058 100 84 0.0 4.0 0.00 0.00 0.00 39 1005.8
20260905192558 100 276 1.0 3.0 0.00 0.00 0.00 38 1005.9
20260905192057 99 39 0.0 5.0 0.00 0.00 0.00 42 1005.9
20260905191555 99 302 1.0 5.0 0.00 0.00 0.00 41 1006.0
20260905191054 100 247 1.0 5.0 0.00 0.00 0.00 40 1006.2
20260905190553 99 265 0.0 5.0 0.00 0.00 0.00 42 1006.2
20260905190052 99 233 2.0 5.0 0.00 0.00 0.00 43 1006.4
20260905185555 99 262 2.0 6.0 0.00 0.00 0.00 43 1006.6
20260905185051 99 172 0.0 4.0 0.00 0.00 0.00 45 1006.7
20260905184551 99 22 0.0 3.0 0.00 0.00 0.00 42 1006.8
20260905184051 99 204 1.0 4.0 0.00 0.00 0.00 43 1006.7
20260905183551 99 204 1.0 6.0 0.00 0.00 0.00 44 1006.8
20260905183050 99 75 1.0 6.0 0.00 0.00 0.00 42 1006.9